KF4UQS-15 Nokesville VA US current weather conditions

sailwx.info

Wind from 174 at 1 knots gusting 5

Air temperature 3.3° C
Dewpoint -5.8° C

Last reported at 2019-Dec-12 18:00 UTC.
Time now 2019-Dec-12 18:52 UTC

Location: N 38°38' W 077°29'.
View on Google Maps.

See reports from other nearby stations

  
Tides and Currents Weather Stations Pressure Air Temp Water Temp Dewpoint Dewpoint Depression Visibility Wind Speed Wind Dir Waves Ship Positions
date/time (UTC)wind fromknots sea level pressurealtimeterstation pressurevisibilityair tempwater tempwave heightnotes
2019-Dec-12 18:00 174 1 gusting 5 3.3
2019-Dec-12 17:47 064 1 gusting 5 3.3
2019-Dec-12 17:31 205 3.3
2019-Dec-12 17:17 186 1 gusting 3 3.3
2019-Dec-12 16:48 078 1 gusting 3 2.2
2019-Dec-12 16:45 077 0 gusting 3 2.2
2019-Dec-12 16:30 039 0 gusting 2 2.2
2019-Dec-12 16:17 127 0 gusting 5 1.7
2019-Dec-12 16:01 038 1 gusting 3 1.7
2019-Dec-12 15:46 124 1 gusting 6 1.1
2019-Dec-12 15:31 139 0 gusting 3 0.6
2019-Dec-12 15:15 121 0 gusting 4 -0.0
2019-Dec-12 15:00 059 1 gusting 4 -0.0
2019-Dec-12 14:47 189 -0.6
2019-Dec-12 14:33 058 1 gusting 2 -1.1
2019-Dec-12 14:16 049 0 gusting 2 -1.7
2019-Dec-12 14:02 113 1 gusting 5 -2.2
2019-Dec-12 13:47 355 0 gusting 2 -2.8
2019-Dec-12 13:30 181 -3.3
2019-Dec-12 13:15 191 -3.3
2019-Dec-12 12:46 192 -3.3
2019-Dec-12 12:30 192 -3.3
2019-Dec-12 12:16 192 -3.3
2019-Dec-12 11:45 192 -2.8
2019-Dec-12 11:31 192 -2.8
2019-Dec-12 10:45 235 -2.2
2019-Dec-12 10:31 202 -2.2
2019-Dec-12 10:17 327 -1.7
2019-Dec-12 09:45 343 -1.7
2019-Dec-12 09:31 339 -1.7
2019-Dec-12 09:15 024 -1.7
2019-Dec-12 09:03 014 0 gusting 3 -1.7
2019-Dec-12 08:46 044 -1.7
2019-Dec-12 08:31 126 0 gusting 3 -1.7
2019-Dec-12 08:16 188 -1.7
2019-Dec-12 08:01 323 1 gusting 4 -1.7
2019-Dec-12 07:46 298 -1.1
2019-Dec-12 07:30 317 -1.1
2019-Dec-12 06:45 012 -1.1
2019-Dec-12 06:32 013 -1.1
2019-Dec-12 06:15 013 -1.1
2019-Dec-12 06:00 360 -0.6
2019-Dec-12 05:46 360 -0.6
2019-Dec-12 05:31 336 -0.6
2019-Dec-12 05:17 336 -0.0
2019-Dec-12 05:02 319 -0.0
2019-Dec-12 04:46 302 0 gusting 3 -0.0
2019-Dec-12 04:30 340 -0.0
2019-Dec-12 04:17 311 3 gusting 8 -0.6
2019-Dec-12 04:03 341 -0.0
2019-Dec-12 03:46 312 0 gusting 6 -0.0
2019-Dec-12 03:31 279 -0.0
2019-Dec-12 03:16 298 0 gusting 4 -0.0
2019-Dec-12 03:02 019 -0.0
2019-Dec-12 02:47 319 0.6
2019-Dec-12 02:30 355 0.6
2019-Dec-12 02:18 040 1 gusting 5 0.6
2019-Dec-12 01:45 335 1 gusting 7 0.6
2019-Dec-12 01:31 348 1 gusting 5 0.6
2019-Dec-12 01:15 015 0 gusting 4 1.1
2019-Dec-12 01:02 328 1 gusting 3 1.1
2019-Dec-12 00:46 017 0 gusting 2 1.1
2019-Dec-12 00:30 360 0.6
2019-Dec-12 00:15 355 1 gusting 4 0.6
2019-Dec-12 00:03 296 1.1
2019-Dec-11 23:47 296 1.1
2019-Dec-11 23:31 296 1.7
2019-Dec-11 23:16 296 1.7
2019-Dec-11 22:45 297 2.8
2019-Dec-11 22:31 297 3.3
2019-Dec-11 22:16 297 3.9
2019-Dec-11 22:00 297 3.9
2019-Dec-11 21:46 297 3.9
2019-Dec-11 21:30 297 0 gusting 3 3.9
2019-Dec-11 21:15 289 4.4
2019-Dec-11 21:05 284 0 gusting 6 4.4
2019-Dec-11 20:45 308 2 gusting 6 4.4
2019-Dec-11 20:30 292 1 gusting 4 4.4
2019-Dec-11 20:18 300 1 gusting 6 4.4
2019-Dec-11 19:45 298 4.4
2019-Dec-11 19:32 302 3 gusting 6 4.4
2019-Dec-11 19:15 232 0 gusting 6 4.4
2019-Dec-11 19:00 302 5 gusting 10 3.9
2019-Dec-11 18:46 269 1 gusting 5 4.4
2019-Dec-11 18:30 240 3 gusting 8 4.4
2019-Dec-11 18:15 278 3.9
2019-Dec-11 17:46 324 3 gusting 9 3.9
2019-Dec-11 17:30 301 1 gusting 6 3.9
2019-Dec-11 17:16 302 0 gusting 9 3.3
2019-Dec-11 16:45 316 4 gusting 15 2.8
2019-Dec-11 16:31 279 2 gusting 10 2.8
2019-Dec-11 16:17 355 6 gusting 11 2.8
2019-Dec-11 15:45 291 4 gusting 9 2.2
2019-Dec-11 15:31 045 5 gusting 9 2.2
2019-Dec-11 15:15 274 2 gusting 5 2.2
2019-Dec-11 15:00 334 0 gusting 7 1.7
2019-Dec-11 14:46 069 2 gusting 6 1.7
2019-Dec-11 14:32 289 4 gusting 9 1.7
2019-Dec-11 14:15 338 2 gusting 7 1.1
2019-Dec-11 14:00 302 0 gusting 5 0.6
2019-Dec-11 13:46 303 0.6
2019-Dec-11 13:30 326 0 gusting 3 -0.0
2019-Dec-11 13:15 315 -0.0
2019-Dec-11 12:46 270 1 gusting 3 0.6
2019-Dec-11 12:32 294 0.6
2019-Dec-11 12:15 292 0.6
2019-Dec-11 12:00 292 0.6
2019-Dec-11 11:46 297 1 gusting 3 -0.0
2019-Dec-11 11:30 275 -0.0
2019-Dec-11 11:16 295 -0.0
2019-Dec-11 11:04 304 1 gusting 3 -0.0
2019-Dec-11 10:47 295 1 gusting 3 -0.0
2019-Dec-11 10:31 286 1 gusting 6 -0.0
2019-Dec-11 10:16 329 4 gusting 10 0.6
2019-Dec-11 10:03 307 0 gusting 6 0.6
2019-Dec-11 09:48 302 0 gusting 4 -0.0
2019-Dec-11 09:31 314 -0.0
2019-Dec-11 09:20 337 0 gusting 3 -0.0
2019-Dec-11 08:45 349 0 gusting 4 -0.0
2019-Dec-11 08:30 031 0 gusting 4 -0.0
2019-Dec-11 08:17 294 2 gusting 7 -0.0
2019-Dec-11 07:45 311 1 gusting 8 0.6
2019-Dec-11 07:32 317 2 gusting 7 1.1
2019-Dec-11 07:15 019 0 gusting 2 1.1
2019-Dec-11 07:00 314 0 gusting 5 1.1
2019-Dec-11 06:47 349 0 gusting 4 1.1
2019-Dec-11 06:33 355 1 gusting 5 1.1
2019-Dec-11 06:15 321 0 gusting 7 1.1
2019-Dec-11 06:02 030 2 gusting 6 1.7
2019-Dec-11 05:46 355 2 gusting 7 1.7
2019-Dec-11 05:35 005 1 gusting 5 2.2
2019-Dec-11 05:30 345 1 gusting 5 2.2
2019-Dec-11 05:17 331 3 gusting 10 2.2
2019-Dec-11 05:02 339 2 gusting 6 2.8
2019-Dec-11 04:47 325 1 gusting 5 2.8
2019-Dec-11 04:31 041 0 gusting 6 3.3
2019-Dec-11 04:16 321 1 gusting 4 3.9
2019-Dec-11 04:04 355 1 gusting 6 4.4
2019-Dec-11 03:48 343 0 gusting 4 4.4
2019-Dec-11 03:31 327 2 gusting 8 5.0
2019-Dec-11 03:16 329 3 gusting 7 5.6
2019-Dec-11 02:45 037 1 gusting 3 6.7
2019-Dec-11 02:31 005 6.7
2019-Dec-11 02:18 013 0 gusting 3 6.7
2019-Dec-11 01:45 338 0 gusting 2 7.2
2019-Dec-11 01:32 026 7.8
2019-Dec-11 01:15 028 7.8
2019-Dec-11 01:00 038 8.3
2019-Dec-11 00:46 340 0 gusting 3 8.3
2019-Dec-11 00:32 013 0 gusting 3 8.9
2019-Dec-11 00:15 026 1 gusting 7 9.4
2019-Dec-11 00:00 317 1 gusting 4 10.0
2019-Dec-10 23:47 310 1 gusting 5 10.6
2019-Dec-10 23:30 350 11.1
2019-Dec-10 23:17 289 11.1
2019-Dec-10 23:02 289 11.1
2019-Dec-10 22:46 327 11.7
2019-Dec-10 22:31 355 0 gusting 2 11.7
2019-Dec-10 22:17 294 0 gusting 3 11.7
2019-Dec-10 21:45 321 12.2
2019-Dec-10 21:32 327 0 gusting 3 12.8
2019-Dec-10 21:15 288 12.8
2019-Dec-10 21:00 286 12.8
2019-Dec-10 20:32 290 0 gusting 3 13.3
2019-Dec-10 20:30 289 0 gusting 3 13.3
2019-Dec-10 20:16 322 0 gusting 3 13.9
2019-Dec-10 20:03 288 0 gusting 3 13.9
2019-Dec-10 19:48 286 0 gusting 2 13.9
2019-Dec-10 19:30 267 13.9
2019-Dec-10 19:17 267 13.9
2019-Dec-10 18:45 319 13.9
2019-Dec-10 18:32 075 13.9
2019-Dec-10 18:15 277 13.9
2019-Dec-10 18:00 278 13.9